^^
Your Local Weather - Clay, NY Station Historical Data
Daily Summary for January 8, 2017 Units:  English    Metric   Both
« Previous Day
Next Day »
Daily Weekly Monthly Yearly Custom
  High: Low: Average:
Temperature: 18.3 °F 7.3 °F 14 °F
Dew Point: 12.4 °F 1.0 °F 6.3 °F
Humidity: 87% 57% 72%
Wind Speed: 7.0mph 0.0mph 3.1mph
Wind Gust: 15.0mph - -
Wind- - West
Pressure: 30.58 in 30.16 in -
Precipitation: 0.00 in    
Historical Graphs
 
 
Tabular Data for January 8, 2017
Time Temperature Dew Point Pressure Wind Wind Speed Wind Gust Humidity Rainfall Rate (Hourly) solar
00:02 15.0 °F 3.2 °F 30.17 in WSW 3.0 mph 6.0 mph 59% 0.00 in 0 W/m2
00:08 14.8 °F 3.0 °F 30.17 in SW 3.0 mph 6.0 mph 59% 0.00 in 0 W/m2
00:14 14.7 °F 2.9 °F 30.17 in SW 3.0 mph 5.0 mph 59% 0.00 in 0 W/m2
00:20 14.6 °F 3.2 °F 30.17 in SW 4.0 mph 4.0 mph 60% 0.00 in 0 W/m2
00:26 14.4 °F 3.0 °F 30.17 in SW 4.0 mph 4.0 mph 60% 0.00 in 0 W/m2
00:32 14.3 °F 2.9 °F 30.17 in WSW 4.0 mph 4.0 mph 60% 0.00 in 0 W/m2
00:38 14.1 °F 3.1 °F 30.17 in SW 4.0 mph 8.0 mph 61% 0.00 in 0 W/m2
00:44 14.0 °F 3.0 °F 30.17 in West 4.0 mph 5.0 mph 61% 0.00 in 0 W/m2
00:50 13.8 °F 2.8 °F 30.17 in WSW 3.0 mph 3.0 mph 61% 0.00 in 0 W/m2
00:56 13.6 °F 3.0 °F 30.17 in West 4.0 mph 7.0 mph 62% 0.00 in 0 W/m2
01:02 13.5 °F 2.9 °F 30.17 in West 3.0 mph 4.0 mph 62% 0.00 in 0 W/m2
01:08 13.5 °F 2.9 °F 30.17 in West 3.0 mph 5.0 mph 62% 0.00 in 0 W/m2
01:14 13.5 °F 2.9 °F 30.17 in WSW 4.0 mph 7.0 mph 62% 0.00 in 0 W/m2
01:20 13.6 °F 3.3 °F 30.18 in West 4.0 mph 4.0 mph 63% 0.00 in 0 W/m2
01:26 13.6 °F 3.3 °F 30.18 in WSW 3.0 mph 5.0 mph 63% 0.00 in 0 W/m2
01:32 13.6 °F 3.3 °F 30.18 in WSW 4.0 mph 4.0 mph 63% 0.00 in 0 W/m2
01:38 13.6 °F 3.3 °F 30.18 in WSW 3.0 mph 4.0 mph 63% 0.00 in 0 W/m2
01:44 13.6 °F 3.0 °F 30.18 in SSW 3.0 mph 9.0 mph 62% 0.00 in 0 W/m2
01:50 13.6 °F 3.0 °F 30.18 in WSW 4.0 mph 5.0 mph 62% 0.00 in 0 W/m2
01:56 13.6 °F 2.6 °F 30.18 in SSW 4.0 mph 7.0 mph 61% 0.00 in 0 W/m2
02:02 13.6 °F 3.0 °F 30.18 in WSW 4.0 mph 4.0 mph 62% 0.00 in 0 W/m2
02:08 13.6 °F 3.0 °F 30.18 in West 3.0 mph 4.0 mph 62% 0.00 in 0 W/m2
02:14 13.6 °F 3.0 °F 30.18 in West 3.0 mph 5.0 mph 62% 0.00 in 0 W/m2
02:20 13.6 °F 3.0 °F 30.18 in SW 3.0 mph 6.0 mph 62% 0.00 in 0 W/m2
02:26 13.6 °F 3.0 °F 30.18 in WSW 3.0 mph 6.0 mph 62% 0.00 in 0 W/m2
02:32 13.6 °F 2.6 °F 30.18 in West 3.0 mph 4.0 mph 61% 0.00 in 0 W/m2
02:38 13.6 °F 2.6 °F 30.18 in West 3.0 mph 4.0 mph 61% 0.00 in 0 W/m2
02:44 13.6 °F 2.6 °F 30.18 in WSW 3.0 mph 4.0 mph 61% 0.00 in 0 W/m2
02:50 13.7 °F 2.7 °F 30.18 in SW 4.0 mph 6.0 mph 61% 0.00 in 0 W/m2
02:56 13.6 °F 2.6 °F 30.18 in West 4.0 mph 6.0 mph 61% 0.00 in 0 W/m2
03:02 13.6 °F 2.6 °F 30.18 in West 3.0 mph 3.0 mph 61% 0.00 in 0 W/m2
03:08 13.6 °F 3.0 °F 30.18 in SW 3.0 mph 6.0 mph 62% 0.00 in 0 W/m2
03:14 13.6 °F 3.0 °F 30.18 in WSW 3.0 mph 4.0 mph 62% 0.00 in 0 W/m2
03:20 13.5 °F 2.9 °F 30.18 in WNW 3.0 mph 4.0 mph 62% 0.00 in 0 W/m2
03:26 13.4 °F 2.4 °F 30.18 in SW 4.0 mph 4.0 mph 61% 0.00 in 0 W/m2
03:32 13.4 °F 2.4 °F 30.18 in WSW 4.0 mph 4.0 mph 61% 0.00 in 0 W/m2
03:38 13.3 °F 2.0 °F 30.18 in West 4.0 mph 7.0 mph 60% 0.00 in 0 W/m2
03:44 13.3 °F 2.0 °F 30.17 in WNW 4.0 mph 9.0 mph 60% 0.00 in 0 W/m2
03:50 13.2 °F 2.3 °F 30.17 in WSW 4.0 mph 8.0 mph 61% 0.00 in 0 W/m2
03:56 13.2 °F 2.3 °F 30.17 in WSW 3.0 mph 8.0 mph 61% 0.00 in 0 W/m2
04:04 13.2 °F 2.3 °F 30.17 in SW 3.0 mph 5.0 mph 61% 0.00 in 0 W/m2
04:10 13.2 °F 1.9 °F 30.17 in West 4.0 mph 7.0 mph 60% 0.00 in 0 W/m2
04:16 13.2 °F 1.5 °F 30.17 in WSW 5.0 mph 7.0 mph 59% 0.00 in 0 W/m2
04:22 13.2 °F 1.9 °F 30.16 in West 4.0 mph 5.0 mph 60% 0.00 in 0 W/m2
04:28 13.1 °F 1.8 °F 30.16 in West 3.0 mph 5.0 mph 60% 0.00 in 0 W/m2
04:34 13.2 °F 1.9 °F 30.16 in WSW 4.0 mph 11.0 mph 60% 0.00 in 0 W/m2
04:40 13.1 °F 1.8 °F 30.16 in WSW 4.0 mph 4.0 mph 60% 0.00 in 0 W/m2
04:46 13.2 °F 1.5 °F 30.16 in SW 5.0 mph 6.0 mph 59% 0.00 in 0 W/m2
04:52 13.1 °F 1.8 °F 30.16 in West 5.0 mph 5.0 mph 60% 0.00 in 0 W/m2
04:58 13.1 °F 1.8 °F 30.16 in SSW 4.0 mph 7.0 mph 60% 0.00 in 0 W/m2
05:04 13.0 °F 1.3 °F 30.16 in WSW 3.0 mph 4.0 mph 59% 0.00 in 0 W/m2
05:10 13.0 °F 1.7 °F 30.16 in SW 3.0 mph 6.0 mph 60% 0.00 in 0 W/m2
05:16 12.9 °F 1.2 °F 30.16 in WSW 3.0 mph 6.0 mph 59% 0.00 in 0 W/m2
05:22 13.0 °F 1.3 °F 30.16 in West 4.0 mph 4.0 mph 59% 0.00 in 0 W/m2
05:28 13.0 °F 1.0 °F 30.16 in SSW 4.0 mph 7.0 mph 58% 0.00 in 0 W/m2
05:34 13.0 °F 1.0 °F 30.16 in SW 5.0 mph 6.0 mph 58% 0.00 in 0 W/m2
05:40 13.1 °F 1.1 °F 30.16 in West 4.0 mph 4.0 mph 58% 0.00 in 0 W/m2
05:46 13.1 °F 1.1 °F 30.16 in SW 4.0 mph 7.0 mph 58% 0.00 in 0 W/m2
05:52 13.2 °F 1.2 °F 30.16 in WSW 4.0 mph 9.0 mph 58% 0.00 in 0 W/m2
05:58 13.3 °F 1.3 °F 30.16 in SW 3.0 mph 9.0 mph 58% 0.00 in 0 W/m2
06:04 13.5 °F 1.4 °F 30.16 in SW 4.0 mph 6.0 mph 58% 0.00 in 0 W/m2
06:10 13.6 °F 1.5 °F 30.16 in West 4.0 mph 5.0 mph 58% 0.00 in 0 W/m2
06:16 13.7 °F 1.6 °F 30.16 in SW 3.0 mph 5.0 mph 58% 0.00 in 0 W/m2
06:22 13.8 °F 1.7 °F 30.16 in West 3.0 mph 3.0 mph 58% 0.00 in 0 W/m2
06:28 13.9 °F 1.8 °F 30.17 in SW 3.0 mph 4.0 mph 58% 0.00 in 0 W/m2
06:34 13.9 °F 1.8 °F 30.17 in SW 3.0 mph 3.0 mph 58% 0.00 in 0 W/m2
06:40 14.0 °F 2.7 °F 30.17 in SW 3.0 mph 3.0 mph 60% 0.00 in 0 W/m2
06:46 14.2 °F 3.2 °F 30.17 in West 4.0 mph 7.0 mph 61% 0.00 in 0 W/m2
06:52 14.3 °F 3.6 °F 30.17 in WSW 4.0 mph 8.0 mph 62% 0.00 in 0 W/m2
06:58 14.4 °F 4.1 °F 30.17 in WSW 4.0 mph 8.0 mph 63% 0.00 in 0 W/m2
07:04 14.4 °F 4.4 °F 30.17 in WNW 4.0 mph 6.0 mph 64% 0.00 in 0 W/m2
07:10 14.5 °F 4.9 °F 30.17 in WNW 4.0 mph 4.0 mph 65% 0.00 in 0 W/m2
07:16 14.5 °F 4.9 °F 30.17 in West 3.0 mph 13.0 mph 65% 0.00 in 0 W/m2
07:22 14.6 °F 5.3 °F 30.17 in West 3.0 mph 7.0 mph 66% 0.00 in 0 W/m2
07:28 14.6 °F 5.3 °F 30.17 in WSW 4.0 mph 7.0 mph 66% 0.00 in 0 W/m2
07:34 14.6 °F 5.6 °F 30.17 in WSW 4.0 mph 5.0 mph 67% 0.00 in 0 W/m2
07:40 14.6 °F 6.0 °F 30.18 in West 4.0 mph 4.0 mph 68% 0.00 in 0 W/m2
07:46 14.6 °F 6.3 °F 30.18 in WNW 4.0 mph 6.0 mph 69% 0.00 in 0 W/m2
07:52 14.5 °F 6.5 °F 30.18 in West 4.0 mph 4.0 mph 70% 0.00 in 0 W/m2
07:58 14.4 °F 7.0 °F 30.19 in West 3.0 mph 4.0 mph 72% 0.00 in 0 W/m2
08:04 13.9 °F 8.0 °F 30.19 in West 2.0 mph 6.0 mph 77% 0.00 in 0 W/m2
08:10 13.4 °F 8.7 °F 30.19 in WSW 2.0 mph 3.0 mph 81% 0.00 in 5 W/m2
09:34 14.9 °F 10.9 °F 30.21 in WSW 3.0 mph 3.0 mph 84% 0.00 in 37 W/m2
09:40 15.0 °F 11.0 °F 30.21 in WSW 2.0 mph 2.0 mph 84% 0.00 in 30 W/m2
09:46 15.1 °F 11.1 °F 30.22 in WSW 3.0 mph 3.0 mph 84% 0.00 in 23 W/m2
09:52 15.1 °F 11.1 °F 30.22 in West 2.0 mph 4.0 mph 84% 0.00 in 18 W/m2
09:58 15.2 °F 11.2 °F 30.23 in WNW 2.0 mph 4.0 mph 84% 0.00 in 18 W/m2
10:04 15.3 °F 11.3 °F 30.23 in WNW 2.0 mph 3.0 mph 84% 0.00 in 16 W/m2
10:10 15.5 °F 11.5 °F 30.23 in WNW 2.0 mph 3.0 mph 84% 0.00 in 37 W/m2
10:16 15.8 °F 11.8 °F 30.23 in WNW 3.0 mph 3.0 mph 84% 0.00 in 123 W/m2
10:22 16.4 °F 12.1 °F 30.23 in NW 3.0 mph 3.0 mph 83% 0.00 in 88 W/m2
10:28 16.5 °F 12.0 °F 30.24 in WNW 3.0 mph 5.0 mph 82% 0.00 in 62 W/m2
10:34 16.5 °F 12.0 °F 30.24 in WNW 3.0 mph 5.0 mph 82% 0.00 in 42 W/m2
10:40 16.9 °F 12.4 °F 30.24 in NW 3.0 mph 3.0 mph 82% 0.00 in 49 W/m2
10:46 16.8 °F 11.4 °F 30.24 in WNW 3.0 mph 6.0 mph 79% 0.00 in 46 W/m2
10:52 16.8 °F 11.1 °F 30.24 in NW 5.0 mph 5.0 mph 78% 0.00 in 84 W/m2
10:58 17.5 °F 11.2 °F 30.24 in NW 4.0 mph 6.0 mph 76% 0.00 in 169 W/m2
11:04 18.3 °F 11.4 °F 30.24 in West 4.0 mph 9.0 mph 74% 0.00 in 176 W/m2
11:10 18.3 °F 11.1 °F 30.24 in West 4.0 mph 5.0 mph 73% 0.00 in 144 W/m2
11:16 17.5 °F 10.3 °F 30.24 in West 4.0 mph 10.0 mph 73% 0.00 in 139 W/m2
11:22 17.1 °F 9.9 °F 30.24 in NNW 5.0 mph 6.0 mph 73% 0.00 in 169 W/m2
11:28 17.2 °F 9.7 °F 30.24 in WNW 4.0 mph 6.0 mph 72% 0.00 in 146 W/m2
11:34 17.2 °F 9.4 °F 30.24 in WNW 4.0 mph 8.0 mph 71% 0.00 in 211 W/m2
11:40 17.3 °F 8.9 °F 30.24 in WNW 5.0 mph 8.0 mph 69% 0.00 in 118 W/m2
11:46 17.1 °F 8.7 °F 30.24 in NW 5.0 mph 8.0 mph 69% 0.00 in 120 W/m2
11:52 17.3 °F 9.2 °F 30.24 in WNW 4.0 mph 8.0 mph 70% 0.00 in 113 W/m2
11:58 17.3 °F 9.5 °F 30.24 in WNW 5.0 mph 8.0 mph 71% 0.00 in 125 W/m2
12:04 17.4 °F 9.6 °F 30.24 in West 5.0 mph 5.0 mph 71% 0.00 in 127 W/m2
12:10 17.5 °F 9.4 °F 30.24 in West 4.0 mph 6.0 mph 70% 0.00 in 128 W/m2
12:16 17.7 °F 8.3 °F 30.24 in NNW 5.0 mph 6.0 mph 66% 0.00 in 135 W/m2
12:22 17.8 °F 7.7 °F 30.25 in NW 5.0 mph 5.0 mph 64% 0.00 in 118 W/m2
12:28 18.0 °F 6.8 °F 30.25 in NW 5.0 mph 8.0 mph 61% 0.00 in 121 W/m2
12:34 18.2 °F 5.9 °F 30.26 in NNW 7.0 mph 7.0 mph 58% 0.00 in 135 W/m2
12:40 18.2 °F 5.5 °F 30.26 in West 7.0 mph 9.0 mph 57% 0.00 in 174 W/m2
12:46 17.7 °F 6.2 °F 30.26 in NW 6.0 mph 9.0 mph 60% 0.00 in 281 W/m2
12:52 17.7 °F 6.2 °F 30.26 in NW 6.0 mph 8.0 mph 60% 0.00 in 155 W/m2
12:58 17.9 °F 6.3 °F 30.26 in NNW 5.0 mph 11.0 mph 60% 0.00 in 167 W/m2
13:04 18.2 °F 6.6 °F 30.26 in NW 4.0 mph 6.0 mph 60% 0.00 in 162 W/m2
13:10 17.6 °F 7.1 °F 30.27 in WNW 6.0 mph 6.0 mph 63% 0.00 in 221 W/m2
13:16 18.1 °F 8.3 °F 30.27 in West 5.0 mph 8.0 mph 65% 0.00 in 357 W/m2
13:22 18.2 °F 7.7 °F 30.27 in West 5.0 mph 12.0 mph 63% 0.00 in 181 W/m2
13:28 17.2 °F 9.7 °F 30.27 in NNW 7.0 mph 12.0 mph 72% 0.00 in 151 W/m2
13:34 16.9 °F 10.0 °F 30.28 in WNW 6.0 mph 11.0 mph 74% 0.00 in 102 W/m2
13:42 17.4 °F 9.3 °F 30.28 in NW 5.0 mph 8.0 mph 70% 0.00 in 171 W/m2
13:48 17.3 °F 8.9 °F 30.28 in WNW 5.0 mph 8.0 mph 69% 0.00 in 93 W/m2
13:54 17.4 °F 8.3 °F 30.28 in NW 5.0 mph 5.0 mph 67% 0.00 in 93 W/m2
14:00 17.5 °F 7.7 °F 30.29 in NNW 5.0 mph 7.0 mph 65% 0.00 in 70 W/m2
14:06 17.2 °F 7.8 °F 30.29 in NW 6.0 mph 7.0 mph 66% 0.00 in 176 W/m2
14:12 17.3 °F 8.2 °F 30.30 in WNW 7.0 mph 10.0 mph 67% 0.00 in 260 W/m2
14:18 17.6 °F 8.5 °F 30.31 in WNW 6.0 mph 10.0 mph 67% 0.00 in 193 W/m2
14:24 17.6 °F 8.8 °F 30.31 in WNW 6.0 mph 6.0 mph 68% 0.00 in 169 W/m2
14:30 17.0 °F 10.1 °F 30.31 in WNW 6.0 mph 6.0 mph 74% 0.00 in 148 W/m2
14:36 16.9 °F 10.9 °F 30.32 in NW 5.0 mph 6.0 mph 77% 0.00 in 127 W/m2
14:42 16.6 °F 10.9 °F 30.32 in NW 4.0 mph 5.0 mph 78% 0.00 in 88 W/m2
14:48 16.0 °F 10.9 °F 30.32 in WNW 6.0 mph 9.0 mph 80% 0.00 in 105 W/m2
14:54 16.0 °F 10.9 °F 30.34 in WNW 5.0 mph 6.0 mph 80% 0.00 in 98 W/m2
15:00 16.1 °F 11.0 °F 30.34 in NNW 4.0 mph 4.0 mph 80% 0.00 in 76 W/m2
15:06 16.1 °F 10.7 °F 30.34 in NNW 4.0 mph 5.0 mph 79% 0.00 in 70 W/m2
15:12 15.9 °F 10.5 °F 30.35 in WNW 5.0 mph 5.0 mph 79% 0.00 in 95 W/m2
15:18 15.8 °F 10.4 °F 30.35 in NW 5.0 mph 5.0 mph 79% 0.00 in 49 W/m2
15:24 15.6 °F 10.8 °F 30.35 in NNW 4.0 mph 11.0 mph 81% 0.00 in 67 W/m2
15:30 15.4 °F 11.2 °F 30.36 in WNW 5.0 mph 5.0 mph 83% 0.00 in 69 W/m2
15:36 15.3 °F 11.3 °F 30.37 in WNW 5.0 mph 5.0 mph 84% 0.00 in 84 W/m2
15:42 15.4 °F 11.2 °F 30.37 in NNW 4.0 mph 6.0 mph 83% 0.00 in 67 W/m2
15:48 15.5 °F 11.0 °F 30.37 in WNW 4.0 mph 6.0 mph 82% 0.00 in 44 W/m2
15:54 15.5 °F 10.4 °F 30.38 in NW 3.0 mph 6.0 mph 80% 0.00 in 35 W/m2
16:00 15.6 °F 10.5 °F 30.39 in NW 4.0 mph 5.0 mph 80% 0.00 in 26 W/m2
16:06 15.4 °F 10.1 °F 30.39 in NW 4.0 mph 6.0 mph 79% 0.00 in 16 W/m2
16:12 15.5 °F 9.9 °F 30.40 in NW 3.0 mph 5.0 mph 78% 0.00 in 25 W/m2
16:18 15.5 °F 9.9 °F 30.40 in NW 3.0 mph 6.0 mph 78% 0.00 in 18 W/m2
16:24 15.5 °F 9.0 °F 30.40 in NW 4.0 mph 15.0 mph 75% 0.00 in 9 W/m2
16:30 15.5 °F 8.4 °F 30.40 in NW 4.0 mph 4.0 mph 73% 0.00 in 7 W/m2
16:36 15.4 °F 8.3 °F 30.41 in WNW 4.0 mph 9.0 mph 73% 0.00 in 5 W/m2
16:42 14.9 °F 9.3 °F 30.41 in North 4.0 mph 7.0 mph 78% 0.00 in 0 W/m2
16:48 14.5 °F 9.5 °F 30.42 in NW 4.0 mph 7.0 mph 80% 0.00 in 0 W/m2
16:54 14.2 °F 9.2 °F 30.42 in NNW 3.0 mph 4.0 mph 80% 0.00 in 0 W/m2
17:00 14.1 °F 8.5 °F 30.43 in NNW 2.0 mph 2.0 mph 78% 0.00 in 0 W/m2
17:06 14.1 °F 7.3 °F 30.43 in WSW 3.0 mph 3.0 mph 74% 0.00 in 0 W/m2
17:12 14.4 °F 7.0 °F 30.43 in NW 4.0 mph 7.0 mph 72% 0.00 in 0 W/m2
17:18 14.4 °F 7.0 °F 30.43 in WNW 4.0 mph 7.0 mph 72% 0.00 in 0 W/m2
17:24 14.3 °F 7.8 °F 30.44 in North 4.0 mph 6.0 mph 75% 0.00 in 0 W/m2
17:30 14.0 °F 8.7 °F 30.45 in NNW 5.0 mph 5.0 mph 79% 0.00 in 0 W/m2
17:36 13.8 °F 8.8 °F 30.45 in NNW 5.0 mph 5.0 mph 80% 0.00 in 0 W/m2
17:42 13.7 °F 9.0 °F 30.45 in NW 5.0 mph 7.0 mph 81% 0.00 in 0 W/m2
17:48 13.5 °F 8.8 °F 30.45 in North 5.0 mph 7.0 mph 81% 0.00 in 0 W/m2
17:54 13.3 °F 8.6 °F 30.45 in NW 4.0 mph 6.0 mph 81% 0.00 in 0 W/m2
18:00 13.2 °F 8.2 °F 30.45 in NNW 3.0 mph 3.0 mph 80% 0.00 in 0 W/m2
18:06 12.9 °F 7.6 °F 30.46 in NW 2.0 mph 3.0 mph 79% 0.00 in 0 W/m2
18:12 13.1 °F 7.2 °F 30.46 in NW 4.0 mph 6.0 mph 77% 0.00 in 0 W/m2
18:18 13.2 °F 6.5 °F 30.46 in NNW 5.0 mph 8.0 mph 74% 0.00 in 0 W/m2
18:24 13.1 °F 6.1 °F 30.47 in NW 3.0 mph 6.0 mph 73% 0.00 in 0 W/m2
18:30 12.9 °F 5.9 °F 30.47 in NNW 2.0 mph 2.0 mph 73% 0.00 in 0 W/m2
18:36 12.8 °F 5.8 °F 30.48 in NNW 1.0 mph 2.0 mph 73% 0.00 in 0 W/m2
18:42 12.6 °F 5.9 °F 30.48 in NNW 1.0 mph 1.0 mph 74% 0.00 in 0 W/m2
18:48 12.4 °F 5.7 °F 30.48 in Calm   1.0 mph 74% 0.00 in 0 W/m2
18:54 12.5 °F 5.8 °F 30.48 in Calm   3.0 mph 74% 0.00 in 0 W/m2
19:00 12.5 °F 5.8 °F 30.49 in Calm   2.0 mph 74% 0.00 in 0 W/m2
19:06 12.6 °F 6.2 °F 30.49 in Calm   2.0 mph 75% 0.00 in 0 W/m2
19:12 12.9 °F 6.2 °F 30.49 in NNW 1.0 mph 6.0 mph 74% 0.00 in 0 W/m2
19:18 13.0 °F 6.0 °F 30.50 in NNW 1.0 mph 6.0 mph 73% 0.00 in 0 W/m2
19:24 13.1 °F 6.4 °F 30.50 in Calm   1.0 mph 74% 0.00 in 0 W/m2
19:30 13.3 °F 6.6 °F 30.51 in NW 2.0 mph 2.0 mph 74% 0.00 in 0 W/m2
19:36 13.4 °F 6.7 °F 30.51 in NW 2.0 mph 3.0 mph 74% 0.00 in 0 W/m2
19:42 13.3 °F 6.6 °F 30.51 in NW 2.0 mph 2.0 mph 74% 0.00 in 0 W/m2
19:48 13.1 °F 7.0 °F 30.51 in NNE 2.0 mph 3.0 mph 76% 0.00 in 0 W/m2
19:54 12.8 °F 7.2 °F 30.52 in NNE 1.0 mph 2.0 mph 78% 0.00 in 0 W/m2
20:00 12.5 °F 7.5 °F 30.52 in NE 1.0 mph 1.0 mph 80% 0.00 in 0 W/m2
20:06 12.1 °F 7.4 °F 30.52 in NE 1.0 mph 1.0 mph 81% 0.00 in 0 W/m2
20:12 12.0 °F 7.6 °F 30.52 in NE 1.0 mph 1.0 mph 82% 0.00 in 0 W/m2
20:18 11.9 °F 7.7 °F 30.52 in Calm   1.0 mph 83% 0.00 in 0 W/m2
20:24 11.7 °F 7.5 °F 30.53 in NNW 1.0 mph 3.0 mph 83% 0.00 in 0 W/m2
20:30 11.5 °F 7.3 °F 30.53 in NNW 2.0 mph 2.0 mph 83% 0.00 in 0 W/m2
20:36 11.4 °F 7.2 °F 30.54 in NNW 1.0 mph 2.0 mph 83% 0.00 in 0 W/m2
20:42 11.3 °F 7.1 °F 30.54 in NNW 1.0 mph 3.0 mph 83% 0.00 in 0 W/m2
20:48 11.2 °F 7.3 °F 30.54 in NNW 1.0 mph 3.0 mph 84% 0.00 in 0 W/m2
20:54 11.1 °F 6.9 °F 30.55 in NNW 1.0 mph 1.0 mph 83% 0.00 in 0 W/m2
21:00 11.0 °F 6.8 °F 30.56 in NNW 1.0 mph 1.0 mph 83% 0.00 in 0 W/m2
21:06 10.9 °F 7.0 °F 30.56 in Calm   1.0 mph 84% 0.00 in 0 W/m2
21:12 10.9 °F 7.0 °F 30.56 in Calm     84% 0.00 in 0 W/m2
21:18 10.9 °F 7.0 °F 30.56 in Calm   1.0 mph 84% 0.00 in 0 W/m2
21:24 10.8 °F 6.9 °F 30.56 in Calm   1.0 mph 84% 0.00 in 0 W/m2
21:30 10.7 °F 6.8 °F 30.56 in Calm   1.0 mph 84% 0.00 in 0 W/m2
21:36 10.7 °F 6.8 °F 30.56 in Calm   1.0 mph 84% 0.00 in 0 W/m2
21:42 10.6 °F 6.7 °F 30.56 in Calm     84% 0.00 in 0 W/m2
21:48 10.6 °F 6.7 °F 30.56 in Calm     84% 0.00 in 0 W/m2
21:54 10.6 °F 6.7 °F 30.57 in Calm     84% 0.00 in 0 W/m2
22:00 10.5 °F 6.6 °F 30.57 in Calm     84% 0.00 in 0 W/m2
22:06 10.5 °F 6.6 °F 30.57 in Calm     84% 0.00 in 0 W/m2
22:12 10.4 °F 6.5 °F 30.57 in Calm     84% 0.00 in 0 W/m2
22:18 10.2 °F 6.3 °F 30.57 in Calm     84% 0.00 in 0 W/m2
22:24 10.1 °F 6.2 °F 30.57 in Calm     84% 0.00 in 0 W/m2
22:30 10.0 °F 6.1 °F 30.57 in Calm     84% 0.00 in 0 W/m2
22:36 9.8 °F 5.9 °F 30.57 in Calm     84% 0.00 in 0 W/m2
22:42 9.2 °F 5.3 °F 30.57 in Calm     84% 0.00 in 0 W/m2
22:48 8.8 °F 5.0 °F 30.57 in Calm     84% 0.00 in 0 W/m2
22:54 8.4 °F 4.6 °F 30.57 in Calm     84% 0.00 in 0 W/m2
23:00 7.8 °F 4.0 °F 30.57 in Calm     84% 0.00 in 0 W/m2
23:06 7.5 °F 3.7 °F 30.57 in Calm     84% 0.00 in 0 W/m2
23:12 7.3 °F 3.5 °F 30.58 in Calm     84% 0.00 in 0 W/m2
23:18 7.7 °F 4.1 °F 30.58 in Calm     85% 0.00 in 0 W/m2
23:24 8.2 °F 4.9 °F 30.58 in Calm     86% 0.00 in 0 W/m2
23:30 8.6 °F 5.3 °F 30.57 in Calm     86% 0.00 in 0 W/m2
23:36 9.1 °F 6.0 °F 30.57 in Calm     87% 0.00 in 0 W/m2
23:42 9.5 °F 6.4 °F 30.57 in Calm     87% 0.00 in 0 W/m2
23:48 9.7 °F 6.4 °F 30.58 in Calm     86% 0.00 in 0 W/m2
23:54 9.9 °F 6.6 °F 30.58 in Calm     86% 0.00 in 0 W/m2
Country Meadow, Clay, NY, USA
Compliments of Weather Underground - 2 mb